[[{"header":{"parameterUnit":"m.s-1","parameterCategory":1,"la1":30.2991,"la2":30.254,"lo1":-89.0895,"lo2":-89.0444,"dy":0.0017,"dx":0.0017,"nx":28,"ny":28,"refTime":"2024-08-25T09:00:00:Z","depth":0,"parameterNumber":2,"parameterNumberName":"U-component_of_WINDS"},"data":[0,0,0,0,0,0,0,0,0,0,0,0,0,0,0,0,0,0,0,0,0,0,0,0,0,0,0,0,0,0,0,0,0,0,0,0,0,0,0,0,0,0,0,0,0,0,0,0,0,0,0,0,0,0,0,0,0,0,1.2866,1.2866,0,1.2883,1.2883,1.2883,1.2857,1.2856,1.2856,1.2855,1.287,1.2871,1.2872,0,0,0,0,0,0,0,0,0,0,0,0,0,1.2812,1.2813,1.2866,1.2866,1.2867,1.2883,1.2883,1.2883,1.2858,1.2856,1.2855,1.2854,1.2869,1.2871,1.2872,0,0,0,0,0,0,0,0,0,0,0,0,0,1.2832,1.2813,1.2866,1.2856,1.2855,1.2882,1.2883,1.2883,1.2858,1.2856,1.2855,1.2854,1.2869,1.2871,1.2872,1.291,0,0,1.2878,1.2879,0,0,0,0,0,0,0,0,1.2831,1.2835,1.2857,1.2857,1.2856,1.2867,1.2869,1.2892,1.2858,1.2857,1.2855,1.2853,1.287,1.2871,1.2877,1.2911,1.2911,1.2878,1.2879,1.288,1.2881,0,0,0,0,0,0,0,1.283,1.2834,1.2873,1.2858,1.2857,1.285,1.2852,1.2873,1.287,1.2857,1.2855,1.2857,1.2869,1.2876,1.2877,1.2912,1.2878,1.288,1.2881,1.2882,1.2977,1.2979,0,0,0,0,0,0,1.283,1.2833,1.2872,1.2873,1.284,1.2852,1.2854,1.2864,1.287,1.287,1.2858,1.2856,1.2873,1.2875,1.2878,1.2922,1.288,1.2882,1.2883,1.2976,1.2978,1.2979,0,0,0,0,0,0,1.2829,1.2834,1.2871,1.2852,1.2857,1.2854,1.2867,1.2865,1.2872,1.2871,1.287,1.2866,1.2872,1.2875,1.2902,1.2922,1.2883,1.2884,1.2974,1.2976,1.2978,1.3012,0,0,0,0,0,0,1.2827,1.2834,1.2848,1.2853,1.2858,1.2896,1.2868,1.2867,1.2875,1.2872,1.2878,1.2878,1.2871,1.29,1.2904,1.2924,1.2886,1.2972,1.2975,1.2978,1.3009,1.3015,1.302,0,0,0,0,0,1.2826,1.2856,1.2849,1.2854,1.2876,1.2897,1.29,1.2893,1.2877,1.2891,1.2891,1.2877,1.292,1.2903,1.2908,1.2928,1.2971,1.2974,1.2977,1.3006,1.3013,1.302,0,0,0,0,0,0,1.2853,1.2857,1.2848,1.2882,1.289,1.2893,1.2911,1.2901,1.2913,1.2909,1.2899,1.2901,1.293,1.2932,1.2913,1.2965,1.2943,1.2947,1.2963,1.297,1.2975,1.2974,1.2887,0,0,0,0,0,1.2863,1.288,1.2883,1.2912,1.2916,1.2913,1.2922,1.2916,1.2923,1.2926,1.2928,1.2935,1.295,1.296,1.2974,1.3009,1.301,1.3026,1.3031,1.3036,1.3039,1.3058,1.3065,1.299,1.299,1.299,0,0,1.2883,1.2887,1.2899,1.2917,1.2922,1.2941,1.2916,1.2936,1.2949,1.2929,1.2955,1.2957,1.2964,1.2996,1.301,1.2998,1.3061,1.304,1.3044,1.3045,1.3062,1.307,1.3076,1.2992,1.2992,1.2991,0,0,1.293,1.2935,1.296,1.2966,1.2975,1.2973,1.2979,1.2984,1.2985,1.3011,1.2996,1.3012,1.3038,1.3044,1.305,1.31,1.3088,1.3105,1.3134,1.3152,1.3158,1.3163,1.3181,1.3187,1.3109,1.3109,1.3109,0,1.2954,1.2981,1.2974,1.2995,1.3003,1.2987,1.3012,1.3018,1.3031,1.3037,1.3024,1.3057,1.3061,1.3094,1.3106,1.3112,1.3118,1.3104,1.3158,1.3163,1.3168,1.3184,1.3191,1.3111,1.3111,1.3111,1.311,0,1.301,1.3029,1.3048,1.3061,1.3072,1.3095,1.3091,1.3103,1.3096,1.3095,1.3122,1.3127,1.3141,1.3149,1.3142,1.3181,1.3173,1.316,1.3136,1.3177,1.3193,1.3199,1.3114,1.3113,1.3113,1.3112,0,0,1.3072,1.3083,1.309,1.3096,1.3105,1.3119,1.3142,1.3157,1.3167,1.3176,1.3195,1.3218,1.3205,1.3213,1.3207,1.3223,1.3262,1.3207,1.3207,1.3217,1.3305,1.3315,1.3322,1.3255,1.3256,1.3257,1.3304,0,1.3119,1.3158,1.3153,1.319,1.3208,1.3193,1.3213,1.322,1.3221,1.3235,1.3235,1.3252,1.3234,1.3238,1.3254,1.3254,1.328,1.3251,1.3271,1.3272,1.3269,1.333,1.3341,1.3385,1.331,1.3311,1.3312,0,1.3177,1.319,1.3229,1.3236,1.3244,1.3261,1.3275,1.3289,1.3297,1.3296,1.3305,1.3297,1.3319,1.3296,1.3327,1.3307,1.3315,1.3317,1.3318,1.3319,1.3294,1.3332,1.3399,1.3406,1.3322,1.3321,1.332,0,1.3219,1.3246,1.3273,1.3278,1.3287,1.33,1.3304,1.3311,1.3321,1.3333,1.3339,1.3353,1.336,1.3372,1.3367,1.3351,1.3398,1.3375,1.3397,1.3398,1.3407,1.3406,1.3475,1.3414,1.3414,1.3413,1.3413,0,1.327,1.3295,1.3292,1.3308,1.3335,1.3329,1.3356,1.3359,1.3365,1.3382,1.337,1.3386,1.3379,1.3395,1.3391,1.3417,1.342,1.342,1.3418,1.342,1.342,1.3425,1.3421,1.3415,1.3415,1.3414,1.3414,0,1.332,1.3319,1.3348,1.3355,1.3357,1.3377,1.3382,1.3397,1.3397,1.3418,1.3423,1.3422,1.344,1.3437,1.3456,1.3453,1.3485,1.3481,1.3483,1.3481,1.3504,1.3501,1.3577,1.3587,1.352,1.352,1.3521,0,1.3353,1.3372,1.3381,1.3391,1.3397,1.3414,1.3424,1.3419,1.343,1.3441,1.3455,1.3472,1.3485,1.3514,1.3515,1.3529,1.3524,1.355,1.3526,1.3528,1.3524,1.3522,1.3524,1.3554,1.3555,1.3556,1.3556,0,1.3411,1.341,1.3425,1.344,1.3453,1.3464,1.3474,1.3484,1.348,1.3492,1.351,1.3521,1.3541,1.3557,1.3571,1.3575,1.3565,1.3564,1.357,1.3571,1.3572,1.3571,1.3495,1.3562,1.3561,1.3561,1.356,1.356,1.3453,1.3469,1.3478,1.3495,1.3503,1.3513,1.3528,1.353,1.3546,1.3562,1.3558,1.3579,1.3587,1.3605,1.361,1.3626,1.3616,1.3625,1.3627,1.3629,1.3631,1.357,1.3628,1.3628,1.3628,1.3628,1.3628,0,1.351,1.3515,1.3531,1.3547,1.356,1.3551,1.3562,1.3574,1.3592,1.3601,1.3615,1.3636,1.3652,1.3655,1.367,1.3682,1.3678,1.3686,1.3685,1.3686,1.3639,1.3632,1.3689,1.3689,1.3689,1.3689,1.3689,1.3689,1.3541,1.3567,1.3568,1.3598,1.3603,1.3624,1.3631,1.364,1.3647,1.3672,1.3685,1.3687,1.3694,1.371,1.3724,1.3725,1.373,1.3741,1.3739,1.3695,1.3689,1.3683,1.3677,1.3742,1.3742,1.3784,1.3785,1.3785]},{"header":{"parameterUnit":"m.s-1","parameterCategory":1,"la1":30.2991,"la2":30.254,"lo1":-89.0895,"lo2":-89.0444,"dy":0.0017,"dx":0.0017,"nx":28,"ny":28,"refTime":"2024-08-25T09:00:00:Z","depth":0,"parameterNumber":3,"parameterNumberName":"V-component_of_WINDS"},"data":[0,0,0,0,0,0,0,0,0,0,0,0,0,0,0,0,0,0,0,0,0,0,0,0,0,0,0,0,0,0,0,0,0,0,0,0,0,0,0,0,0,0,0,0,0,0,0,0,0,0,0,0,0,0,0,0,0,0,-2.469,-2.4692,0,-2.4812,-2.4813,-2.4815,-2.4829,-2.4827,-2.4826,-2.4825,-2.4949,-2.4953,-2.4958,0,0,0,0,0,0,0,0,0,0,0,0,0,-2.447,-2.4474,-2.469,-2.4692,-2.4693,-2.4812,-2.4813,-2.4815,-2.4829,-2.4827,-2.4826,-2.4825,-2.4948,-2.4953,-2.4958,0,0,0,0,0,0,0,0,0,0,0,0,0,-2.4576,-2.4475,-2.469,-2.4714,-2.4718,-2.4811,-2.4813,-2.4815,-2.4829,-2.4827,-2.4826,-2.4824,-2.4946,-2.4952,-2.4959,-2.5036,0,0,-2.4979,-2.4982,0,0,0,0,0,0,0,0,-2.457,-2.4584,-2.4709,-2.4713,-2.4717,-2.4803,-2.4781,-2.4889,-2.483,-2.4787,-2.4825,-2.4823,-2.4902,-2.4912,-2.4939,-2.5042,-2.5047,-2.498,-2.4984,-2.4987,-2.4988,0,0,0,0,0,0,0,-2.4563,-2.4579,-2.4738,-2.4711,-2.4716,-2.4719,-2.4732,-2.4802,-2.4853,-2.479,-2.4792,-2.4806,-2.4904,-2.4932,-2.4942,-2.5049,-2.4979,-2.4985,-2.4989,-2.4992,-2.5222,-2.5224,0,0,0,0,0,0,-2.4551,-2.4573,-2.4734,-2.4742,-2.4638,-2.4725,-2.4739,-2.4777,-2.4852,-2.4862,-2.4807,-2.4806,-2.4922,-2.4934,-2.4946,-2.5042,-2.4986,-2.4993,-2.4997,-2.522,-2.5223,-2.5225,0,0,0,0,0,0,-2.4546,-2.4565,-2.4729,-2.4658,-2.4679,-2.4731,-2.4773,-2.4781,-2.4809,-2.4865,-2.4874,-2.4827,-2.4921,-2.4937,-2.5014,-2.5046,-2.4996,-2.5002,-2.5218,-2.5221,-2.5224,-2.5233,0,0,0,0,0,0,-2.454,-2.4563,-2.4593,-2.4658,-2.4683,-2.4795,-2.4775,-2.4784,-2.4821,-2.482,-2.4886,-2.4895,-2.4921,-2.5004,-2.502,-2.5055,-2.5007,-2.5215,-2.5219,-2.5223,-2.523,-2.5237,-2.5242,0,0,0,0,0,-2.4532,-2.4591,-2.4594,-2.4614,-2.4721,-2.4797,-2.4811,-2.4839,-2.4823,-2.4854,-2.489,-2.4893,-2.504,-2.5012,-2.503,-2.5067,-2.5213,-2.5218,-2.5223,-2.5228,-2.5235,-2.5242,0,0,0,0,0,0,-2.4527,-2.4599,-2.4605,-2.4686,-2.4735,-2.4799,-2.4838,-2.4846,-2.49,-2.4897,-2.493,-2.4945,-2.502,-2.5052,-2.5018,-2.5146,-2.5125,-2.5134,-2.5123,-2.513,-2.5136,-2.5127,-2.5012,0,0,0,0,0,-2.4536,-2.4591,-2.4652,-2.4718,-2.4742,-2.4786,-2.482,-2.4838,-2.489,-2.491,-2.4952,-2.5002,-2.506,-2.5097,-2.5153,-2.5235,-2.525,-2.527,-2.5276,-2.528,-2.5287,-2.5334,-2.5343,-2.5241,-2.5241,-2.5241,0,0,-2.4554,-2.46,-2.4633,-2.4718,-2.4758,-2.4815,-2.4803,-2.4864,-2.4906,-2.4919,-2.4995,-2.5027,-2.5085,-2.5166,-2.5203,-2.5194,-2.5319,-2.5286,-2.5289,-2.5294,-2.534,-2.5349,-2.5358,-2.5244,-2.5244,-2.5243,0,0,-2.4616,-2.4656,-2.4716,-2.4757,-2.4818,-2.4847,-2.4861,-2.4924,-2.4947,-2.5023,-2.5034,-2.5085,-2.5184,-2.5225,-2.5259,-2.5338,-2.5343,-2.5355,-2.5385,-2.543,-2.5438,-2.5445,-2.5473,-2.5483,-2.5362,-2.5362,-2.5362,0,-2.463,-2.4716,-2.4746,-2.4807,-2.4844,-2.4859,-2.492,-2.4958,-2.5034,-2.506,-2.5049,-2.5173,-2.5213,-2.5304,-2.5323,-2.535,-2.5368,-2.5347,-2.5434,-2.5442,-2.5449,-2.5476,-2.5487,-2.5363,-2.5363,-2.5363,-2.5363,0,-2.4731,-2.4791,-2.4832,-2.4906,-2.4948,-2.5008,-2.5047,-2.5086,-2.51,-2.5131,-2.5208,-2.5258,-2.5324,-2.5347,-2.5361,-2.544,-2.5432,-2.5428,-2.5407,-2.5459,-2.5486,-2.5496,-2.5365,-2.5364,-2.5364,-2.5364,0,0,-2.4792,-2.4883,-2.4897,-2.4931,-2.5,-2.5047,-2.5109,-2.5174,-2.5207,-2.5259,-2.5312,-2.5395,-2.5392,-2.543,-2.5449,-2.5489,-2.5549,-2.5479,-2.5481,-2.549,-2.5639,-2.5641,-2.5653,-2.5553,-2.5555,-2.5557,-2.5634,0,-2.4862,-2.4972,-2.5001,-2.5094,-2.515,-2.5166,-2.522,-2.5268,-2.5298,-2.535,-2.5384,-2.5442,-2.5433,-2.5456,-2.5496,-2.5533,-2.5579,-2.5528,-2.5602,-2.5604,-2.5586,-2.5667,-2.567,-2.574,-2.5644,-2.5646,-2.5647,0,-2.4958,-2.5012,-2.5111,-2.5174,-2.5199,-2.5246,-2.5309,-2.5358,-2.5414,-2.5433,-2.5477,-2.5493,-2.5558,-2.5535,-2.5625,-2.559,-2.5622,-2.5645,-2.5648,-2.5656,-2.5628,-2.5676,-2.5762,-2.5773,-2.5663,-2.5662,-2.5661,0,-2.4992,-2.5091,-2.5163,-2.5191,-2.5266,-2.53,-2.5332,-2.5386,-2.5424,-2.5479,-2.5504,-2.5566,-2.56,-2.5647,-2.568,-2.566,-2.5767,-2.5747,-2.5785,-2.5784,-2.5806,-2.5804,-2.5899,-2.5828,-2.5828,-2.5828,-2.5827,0,-2.5066,-2.5126,-2.5179,-2.5224,-2.5291,-2.5325,-2.5391,-2.5424,-2.5472,-2.5524,-2.5542,-2.5589,-2.5629,-2.5683,-2.5709,-2.578,-2.5795,-2.5812,-2.5818,-2.5811,-2.5808,-2.5832,-2.5827,-2.5831,-2.583,-2.5829,-2.5829,0,-2.5116,-2.5154,-2.5234,-2.5298,-2.5316,-2.5363,-2.5419,-2.5463,-2.5494,-2.5559,-2.5576,-2.5625,-2.5689,-2.5726,-2.5807,-2.5824,-2.5903,-2.5907,-2.5884,-2.5887,-2.5923,-2.5919,-2.6035,-2.6052,-2.597,-2.5971,-2.5972,0,-2.516,-2.5207,-2.5277,-2.5313,-2.5346,-2.5403,-2.5442,-2.5477,-2.5517,-2.5585,-2.562,-2.5685,-2.5739,-2.5841,-2.5884,-2.5946,-2.5951,-2.5988,-2.596,-2.5951,-2.5951,-2.5948,-2.5953,-2.5992,-2.5993,-2.5993,-2.5994,0,-2.5235,-2.5252,-2.5308,-2.537,-2.5416,-2.5467,-2.5518,-2.5546,-2.5589,-2.5633,-2.5699,-2.5741,-2.5824,-2.5888,-2.5954,-2.5988,-2.5998,-2.6002,-2.6014,-2.6006,-2.5991,-2.6,-2.5896,-2.5999,-2.5999,-2.5998,-2.5998,-2.5998,-2.5284,-2.5326,-2.5382,-2.5444,-2.5486,-2.5533,-2.5577,-2.5615,-2.567,-2.574,-2.5758,-2.5827,-2.5882,-2.5972,-2.6007,-2.6062,-2.6056,-2.6073,-2.6078,-2.6082,-2.6083,-2.5983,-2.6074,-2.6074,-2.6074,-2.6074,-2.6074,0,-2.536,-2.5397,-2.5453,-2.5523,-2.5572,-2.5578,-2.5635,-2.5675,-2.5736,-2.5786,-2.5839,-2.5915,-2.5978,-2.6027,-2.6091,-2.6126,-2.6132,-2.6142,-2.6139,-2.6147,-2.6084,-2.6067,-2.6135,-2.6135,-2.6135,-2.6135,-2.6135,-2.6135,-2.5405,-2.5477,-2.55,-2.5594,-2.5631,-2.5699,-2.573,-2.5774,-2.5815,-2.5899,-2.5952,-2.5983,-2.6033,-2.6102,-2.616,-2.6173,-2.6196,-2.6204,-2.6218,-2.6158,-2.6151,-2.6145,-2.6129,-2.6209,-2.6209,-2.6276,-2.6276,-2.6277]}]]